Location: ?????
(55.6500°N, 37.2500°E)
Time: 02:54:41
(UTC+00:00)

Cosmos 1666 Rocket - Pass Details

Date: 19 May 2025
Orbit: 599 x 625 km, 82.5° (Epoch: 14 June)

Event Time Altitude Azimuth Distance (km) Brightness Sun altitude
Rises 22:16:05 0° 343° (NNW) 2,880 8.1 -13.7°
Reaches altitude 10° 22:18:24 10° 335° (NNW) 1,975 7.0 -13.6°
Maximum altitude 22:22:27 38° 268° (W) 941 4.3 -13.5°
Enters shadow 22:24:57 20° 211° (SSW) 1,431 4.8 -13.4°
